KF0QIL-10 Weather Reports


time (UTC)temp
C
wind
direction
speed
KPH
gust
KPH
rain 1hr
cm
rain 24hr
cm
rain mn
cm
humidity
%
barometer
mb
20260906160745 30 68 9.7 12.9 0.00 0.00 0.00 71 1016.7
20260906153745 29 63 9.7 14.5 0.00 0.00 0.00 73 1016.5
20260906150745 28 81 9.7 14.5 0.00 0.00 0.00 75 1016.3
20260906140745 26 104 9.7 11.3 0.00 0.00 0.00 79 1016.4
20260906133745 26 76 9.7 14.5 0.00 0.00 0.00 83 1016.0
20260906130745 25 79 9.7 12.9 0.00 0.00 0.00 88 1016.1
20260906120745 23 91 6.4 6.4 0.00 0.00 0.00 93 1015.6
20260906113745 23 79 6.4 8.0 0.00 0.00 0.00 94 1015.4
20260906110745 23 81 8.0 9.7 0.00 0.00 0.00 93 1015.4
20260906100745 25 73 8.0 9.7 0.00 0.00 0.00 91 1015.0
20260906093745 25 80 6.4 9.7 0.00 0.00 0.00 89 1014.6
20260906090745 25 52 3.2 6.4 0.00 0.00 0.00 87 1014.4
20260906080745 23 262 0.0 1.6 0.00 0.00 0.00 91 1014.1
20260906073745 23 265 0.0 1.6 0.00 0.00 0.00 89 1014.1
20260906070745 23 49 0.0 1.6 0.00 0.00 0.00 91 1014.3
20260906060745 23 76 0.0 1.6 0.00 0.00 0.00 92 1014.5
20260906053745 22 238 0.0 1.6 0.00 0.00 0.00 94 1014.5
20260906050745 23 65 0.0 1.6 0.00 0.00 0.00 93 1014.6
20260906041745 23 254 1.6 3.2 0.00 0.00 0.00 91 1014.3
20260906033745 23 300 1.6 3.2 0.00 0.00 0.00 89 1014.0
20260906030745 24 282 1.6 1.6 0.00 0.00 0.00 88 1013.7
20260906025745 24 294 1.6 1.6 0.00 0.00 0.00 88 1013.6
20260906024745 24 235 1.6 1.6 0.00 0.00 0.00 87 1013.6
20260906020127 25 135 0.0 1.6 0.00 0.00 0.00 83 1013.0
20260906013127 26 286 1.6 3.2 0.00 0.00 0.00 76 1012.7
20260906010127 27 268 3.2 3.2 0.00 0.00 0.00 74 1012.4
20260906000127 32 52 4.8 6.4 0.00 0.00 0.00 53 1012.3
20260905233127 34 37 9.7 12.9 0.00 0.00 0.00 51 1012.3
20260905230127 36 338 0.0 3.2 0.00 0.00 0.00 43 1012.2
20260905220127 36 261 6.4 9.7 0.00 0.00 0.00 38 1012.3
20260905213127 36 272 4.8 6.4 0.00 0.00 0.00 37 1012.3
20260905210127 37 299 3.2 6.4 0.00 0.00 0.00 39 1012.5
20260905200127 36 44 6.4 9.7 0.00 0.00 0.00 43 1013.3
20260905193127 36 300 6.4 9.7 0.00 0.00 0.00 42 1013.5
20260905190127 36 287 9.7 14.5 0.00 0.00 0.00 44 1013.9
20260905180127 36 23 4.8 6.4 0.00 0.00 0.00 46 1014.5
20260905173127 35 88 3.2 6.4 0.00 0.00 0.00 50 1014.8
20260905170127 35 336 8.0 12.9 0.00 0.00 0.00 52 1015.0